STARLINK-30758, 58133

Orbit data source: Space-Track

STARLINK-30758, 58133 is a payload satellite owned by SpaceX/Seattle (US) in LEO that was launched on Sun, 22 Oct 2023 UTC via an FALCON 9 launch vehicle from the Air Force Eastern Test Range (AFETR). Payload-class satellites include a variety of spacecraft equipped with specific instruments for various scientific and technological missions. These include communications satellites like Starlink; space stations such as the ISS; scientific satellites like the Hubble; Earth observation satellites from companies like Planet Labs, Umbra, and HawkEye 360; GPS; miniature CubeSats for education and research; and military/defense satellites.

Loading next visibility...
Identifier
58133, 2023-162R
Orbit
LEO
Country
Flag of USUS
Related business
Manufacturer
SpaceX/Seattle
Mission
Operational Commercial Communications
Bus & Motor
STARLINK V2M, Unknown motor
Mass
730 kg wet, ~700 kg dry
Launch date (UTC)
2023-10-22 (2 years ago)
Launch vehicle
FALCON 9
Launch site
Air Force Eastern Test Range (AFETR)
Object type
Payload
Rocket body
Debris
Shape & HBR
Box + 2 Pan, 17.7 m
Radar Cross Section
33.884 m², Large (>1 m²)

Expand to show TLE details & history
Last TLE update: 21 hours ago

TLE from 21 hours ago
0 STARLINK-30758
1 58133U 23162R   25348.73196005 -.00000209  00000-0 -37684-6 0  9994
2 58133  43.0038 234.4280 0001230 265.5135  94.5567 15.02528720119522
Epoch: 2025-12-14T17:34Z
TLE epoch observation values (Epoch: 2025-12-14T17:34:01.348Z)
Latitude
-0°
Longitude
-112.71828°
Altitude
558.948 km
Speed
7.584 km/s
True Right ascension
15h 37m 42s
True Declination
0° 00' 00"
Sunlit
Object was in daylight at epoch
Visualization orbit readout
Latitude
Unknown
Longitude
Unknown
Altitude
Unknown
Speed
Unknown
Apparent Right ascension
Unknown
Apparent Declination
Unknown
Sunlit
N/A
Visualization observer readout
Local Sidereal Time
13:19:52
Azimuth
Unknown
Elevation
Unknown
Doppler factor
Unknown
Orbital elements
Apogee altitude
561.879 km
Perigee altitude
560.172 km
Semi-major axis
6,939.162 km
Eccentricity
0.00012
Inclination
43.0038°
RAAN
234.428°
Arg. of periapsis
265.5135°
True anomaly
94.57075°
Mean anomaly
94.5567°
Eccentric anomaly
94.56373°
Mean motion
3.75476 °/min
Orbital period
95.88 mins
BSTAR
-3.7684e-7
Loading maneuver chart data...
Computing Atmospheric mass density...
Loading historical data...
Loading historical data...
Loading historical data...
Loading historical data...
Loading historical data...
Loading historical data...
Loading historical data...

Documentation

Showing up to 5 results
|